S51FO-6 Weather Reports


Display with metric or nautical units.
time (UTC)temp
F
wind
direction
speed
MPH
gust
MPH
rain 1hr
in
rain 24hr
in
rain mn
in
humidity
%
barometer
mb
20260506182944 48 0.0 0.0 0.16 1.30 1.30 87
20260506181944 48 0.0 0.0 0.15 1.26 1.26 88
20260506175944 48 0.0 0.0 0.11 1.22 1.20 87
20260506174944 48 0.0 0.0 0.09 1.21 1.19 87
20260506173944 48 0.0 0.0 0.08 1.20 1.16 87
20260506172944 48 0.0 0.0 0.04 1.16 1.13 87
20260506171944 48 0.0 0.0 0.02 1.15 1.11 87
20260506170944 48 0.0 0.0 0.02 1.16 1.11 87
20260506164944 48 0.0 0.0 0.00 1.16 1.09 87
20260506163944 48 0.0 0.0 0.00 1.16 1.08 87
20260506162944 48 0.0 0.0 0.00 1.18 1.08 87
20260506161944 48 0.0 0.0 0.00 1.18 1.08 87
20260506160944 48 0.0 0.0 0.00 1.18 1.08 87
20260506155944 48 0.0 0.0 0.03 1.19 1.08 87
20260506154944 48 0.0 0.0 0.04 1.19 1.08 87
20260506152944 48 0.0 0.0 0.05 1.20 1.08 87
20260506150944 48 0.0 0.0 0.09 1.19 1.08 87
20260506145944 48 0.0 0.0 0.11 1.16 1.05 87
20260506144944 48 0.0 0.0 0.13 1.16 1.04 87
20260506143944 48 0.0 0.0 0.16 1.16 1.04 87
20260506141944 48 0.0 0.0 0.19 1.13 1.01 87
20260506135944 48 0.0 0.0 0.17 1.07 0.94 87
20260506134944 47 0.0 0.0 0.16 1.04 0.91 87
20260506133944 47 0.0 0.0 0.16 1.00 0.88 87
20260506132944 47 0.0 0.0 0.16 0.98 0.85 87
20260506130944 47 0.0 0.0 0.14 0.92 0.79 87
20260506125944 47 0.0 0.0 0.14 0.89 0.76 87
20260506124944 47 0.0 0.0 0.15 0.87 0.74 87
20260506123944 47 0.0 0.0 0.15 0.84 0.71 87
20260506122947 47 0.0 0.0 0.16 0.82 0.69 87
20260506121944 47 0.0 0.0 0.16 0.80 0.67 87
20260506120944 47 0.0 0.0 0.16 0.77 0.64 87
20260506115953 47 0.0 0.0 0.17 0.75 0.62 87
20260506114944 46 0.0 0.0 0.16 0.72 0.59 87
20260506113944 46 0.0 0.0 0.17 0.69 0.56 87
20260506112944 46 0.0 0.0 0.16 0.66 0.53 87
20260506110944 46 0.0 0.0 0.16 0.60 0.47 87
20260506105944 46 0.0 0.0 0.14 0.57 0.44 87
20260506104946 46 0.0 0.0 0.13 0.55 0.42 87
20260506103951 46 0.0 0.0 0.11 0.52 0.39 87
20260506102950 46 0.0 0.0 0.08 0.49 0.36 87
20260506101944 46 0.0 0.0 0.06 0.47 0.34 87
20260506100944 46 0.0 0.0 0.04 0.44 0.31 87
20260506095944 46 0.0 0.0 0.02 0.43 0.30 87
20260506094944 45 0.0 0.0 0.01 0.42 0.28 87
20260506093944 45 0.0 0.0 0.02 0.41 0.27 87
20260506092944 45 0.0 0.0 0.04 0.41 0.27 87
20260506091944 45 0.0 0.0 0.06 0.42 0.27 87
20260506090944 45 0.0 0.0 0.08 0.43 0.27 87
20260506085944 45 0.0 0.0 0.11 0.44 0.27 87
20260506084944 44 0.0 0.0 0.13 0.43 0.27 87
20260506083944 44 0.0 0.0 0.14 0.41 0.25 87
20260506082944 44 0.0 0.0 0.13 0.39 0.23 87
20260506081944 44 0.0 0.0 0.12 0.37 0.21 87
20260506080944 45 0.0 0.0 0.09 0.35 0.19 87
20260506072944 45 0.0 0.0 0.03 0.25 0.09 87
20260506071944 45 0.0 0.0 0.03 0.25 0.09 87
20260506060944 46 0.0 0.0 0.01 0.21 0.05 87
20260506050946 47 0.0 0.0 0.01 0.20 0.04 87
20260506044949 47 0.0 0.0 0.00 0.19 0.03 87
20260506043949 47 0.0 0.0 0.00 0.19 0.03 87
20260506042946 47 0.0 0.0 0.00 0.18 0.02 87
20260506034946 46 0.0 0.0 0.00 0.18 0.02 87
20260506033946 46 0.0 0.0 0.00 0.18 0.02 87
20260506031946 46 0.0 0.0 0.00 0.18 0.02 87
20260506030946 46 0.0 0.0 0.00 0.18 0.02 87
20260506025951 46 0.0 0.0 0.00 0.18 0.02 87
20260506023946 46 0.0 0.0 0.00 0.17 0.01 87
20260506022950 46 0.0 0.0 0.00 0.17 0.01 87
20260506020946 45 0.0 0.0 0.00 0.17 0.01 87
20260506015950 46 0.0 0.0 0.00 0.17 0.01 87
20260506014946 45 0.0 0.0 0.00 0.17 0.01 87
20260506013949 46 0.0 0.0 0.00 0.17 0.01 87
20260506012956 45 0.0 0.0 0.00 0.17 0.01 87
20260506011946 46 0.0 0.0 0.00 0.17 0.01 87
20260506010947 45 0.0 0.0 0.00 0.17 0.01 87
20260506005948 45 0.0 0.0 0.01 0.17 0.01 87
20260506004949 45 0.0 0.0 0.01 0.17 0.01 87
20260506003946 46 0.0 0.0 0.01 0.17 0.01 87
20260506001946 45 0.0 0.0 0.01 0.17 0.01 87
20260506000946 45 0.0 0.0 0.01 0.17 0.01 87
20260505235955 45 0.0 0.0 0.00 0.16 0.00 87
20260505233946 45 0.0 0.0 0.00 0.16 0.16 87
20260505232948 45 0.0 0.0 0.00 0.16 0.16 87
20260505231946 45 0.0 0.0 0.00 0.16 0.16 87
20260505224949 44 0.0 0.0 0.00 0.16 0.16 87
20260505222951 45 0.0 0.0 0.00 0.16 0.16 87
20260505221957 45 0.0 0.0 0.00 0.16 0.16 87
20260505220946 45 0.0 0.0 0.00 0.16 0.16 87
20260505215954 45 0.0 0.0 0.00 0.16 0.16 87
20260505214946 45 0.0 0.0 0.00 0.16 0.16 87
20260505213950 45 0.0 0.0 0.00 0.16 0.16 87
20260505212949 45 0.0 0.0 0.00 0.16 0.16 87
20260505211948 45 0.0 0.0 0.00 0.16 0.16 87
20260505210948 44 0.0 0.0 0.00 0.16 0.16 87
20260505205949 44 0.0 0.0 0.00 0.16 0.16 86
20260505204946 44 0.0 0.0 0.00 0.16 0.16 86
20260505203947 44 0.0 0.0 0.00 0.16 0.16 86
20260505202954 44 0.0 0.0 0.00 0.16 0.16 86
20260505201947 44 0.0 0.0 0.00 0.16 0.16 86
20260505200946 44 0.0 0.0 0.00 0.16 0.16 86
20260505195950 44 0.0 0.0 0.00 0.16 0.16 86
20260505194952 44 0.0 0.0 0.00 0.16 0.16 86
20260505193946 44 0.0 0.0 0.00 0.16 0.16 86
20260505192946 44 0.0 0.0 0.00 0.16 0.16 86
20260505190946 44 0.0 0.0 0.00 0.16 0.16 86
20260505185951 43 0.0 0.0 0.01 0.16 0.16 86
20260505184948 43 0.0 0.0 0.02 0.16 0.16 86
20260505184000 43 0.0 0.0 0.03 0.16 0.16 86